| time (UTC) | temp C | wind direction | speed KPH | gust KPH | rain 1hr cm | rain 24hr cm | rain mn cm | humidity % | barometer mb |
| 20260507070606 | 3 | 246 | 4.8 | 11.3 | 0.00 | 0.51 | 0.00 | 72 | 1009.5 |
| 20260507065605 | 3 | 252 | 4.8 | 11.3 | 0.00 | 0.51 | 0.00 | 72 | 1009.5 |
| 20260507064606 | 3 | 275 | 8.0 | 12.9 | 0.00 | 0.51 | 0.00 | 71 | 1009.4 |
| 20260507063606 | 3 | 255 | 6.4 | 14.5 | 0.00 | 0.51 | 0.00 | 71 | 1009.4 |
| 20260507062606 | 3 | 265 | 9.7 | 16.1 | 0.00 | 0.51 | 0.00 | 71 | 1009.4 |
| 20260507061605 | 3 | 256 | 8.0 | 19.3 | 0.00 | 0.51 | 0.00 | 71 | 1009.4 |
| 20260507060605 | 3 | 247 | 8.0 | 14.5 | 0.00 | 0.51 | 0.00 | 71 | 1009.6 |
| 20260507054606 | 3 | 260 | 8.0 | 12.9 | 0.00 | 0.51 | 0.00 | 71 | 1009.6 |
| 20260507053606 | 3 | 252 | 8.0 | 16.1 | 0.00 | 0.51 | 0.00 | 70 | 1009.6 |
| 20260507052605 | 3 | 254 | 6.4 | 14.5 | 0.00 | 0.51 | 0.00 | 72 | 1009.6 |
| 20260507051605 | 3 | 243 | 6.4 | 11.3 | 0.00 | 0.51 | 0.00 | 72 | 1009.6 |
| 20260507050606 | 3 | 249 | 4.8 | 9.7 | 0.00 | 0.51 | 0.00 | 72 | 1009.5 |
| 20260507045605 | 3 | 247 | 4.8 | 9.7 | 0.00 | 0.51 | 0.00 | 71 | 1009.5 |
| 20260507044606 | 3 | 268 | 4.8 | 11.3 | 0.00 | 0.51 | 0.00 | 71 | 1009.7 |
| 20260507041605 | 4 | 259 | 6.4 | 11.3 | 0.00 | 0.51 | 0.00 | 68 | 1009.6 |
| 20260507040605 | 5 | 270 | 4.8 | 14.5 | 0.00 | 0.51 | 0.00 | 68 | 1009.4 |
| 20260507034606 | 5 | 256 | 9.7 | 19.3 | 0.00 | 0.51 | 0.51 | 67 | 1009.3 |
| 20260507033605 | 5 | 263 | 4.8 | 12.9 | 0.00 | 0.51 | 0.51 | 67 | 1009.2 |
| 20260507032605 | 5 | 262 | 3.2 | 19.3 | 0.00 | 0.51 | 0.51 | 66 | 1009.3 |
| 20260507031605 | 5 | 267 | 8.0 | 14.5 | 0.00 | 0.51 | 0.51 | 66 | 1009.4 |
| 20260507030605 | 5 | 258 | 8.0 | 19.3 | 0.00 | 0.51 | 0.51 | 65 | 1009.3 |
| 20260507025605 | 6 | 260 | 8.0 | 16.1 | 0.00 | 0.51 | 0.51 | 64 | 1009.3 |
| 20260507024605 | 6 | 237 | 8.0 | 12.9 | 0.00 | 0.51 | 0.51 | 64 | 1009.4 |
| 20260507023605 | 6 | 254 | 8.0 | 19.3 | 0.00 | 0.51 | 0.51 | 63 | 1009.3 |
| 20260507021605 | 7 | 268 | 11.3 | 20.9 | 0.00 | 0.51 | 0.51 | 65 | 1009.2 |
| 20260507020605 | 7 | 257 | 9.7 | 19.3 | 0.00 | 0.51 | 0.51 | 76 | 1009.3 |
| 20260507015606 | 7 | 233 | 8.0 | 19.3 | 0.00 | 0.51 | 0.51 | 82 | 1009.3 |
| 20260507014605 | 7 | 235 | 6.4 | 12.9 | 0.00 | 0.51 | 0.51 | 83 | 1009.3 |
| 20260507013606 | 7 | 224 | 3.2 | 11.3 | 0.00 | 0.51 | 0.51 | 84 | 1009.2 |
| 20260507012605 | 8 | 232 | 6.4 | 9.7 | 0.00 | 0.51 | 0.51 | 83 | 1009.1 |
| 20260507011605 | 8 | 247 | 3.2 | 12.9 | 0.00 | 0.51 | 0.51 | 83 | 1009.0 |
| 20260507010605 | 8 | 219 | 8.0 | 12.9 | 0.00 | 0.51 | 0.51 | 83 | 1009.0 |
| 20260507005605 | 8 | 250 | 9.7 | 14.5 | 0.00 | 0.51 | 0.51 | 83 | 1008.9 |
| 20260507004605 | 8 | 270 | 6.4 | 12.9 | 0.00 | 0.51 | 0.51 | 84 | 1008.9 |
| 20260507003605 | 8 | 237 | 4.8 | 11.3 | 0.00 | 0.51 | 0.51 | 85 | 1008.8 |
| 20260507002605 | 8 | 257 | 6.4 | 11.3 | 0.00 | 0.51 | 0.51 | 85 | 1008.7 |
| 20260507001605 | 8 | 259 | 8.0 | 16.1 | 0.00 | 0.51 | 0.51 | 86 | 1008.6 |
| 20260506235605 | 8 | 218 | 6.4 | 11.3 | 0.00 | 0.51 | 0.51 | 87 | 1008.4 |
| 20260506234605 | 8 | 205 | 8.0 | 12.9 | 0.00 | 0.51 | 0.51 | 86 | 1008.4 |
| 20260506232605 | 8 | 203 | 8.0 | 16.1 | 0.00 | 0.51 | 0.51 | 85 | 1008.3 |
| 20260506230605 | 9 | 199 | 9.7 | 19.3 | 0.00 | 0.51 | 0.51 | 84 | 1008.0 |
| 20260506224605 | 9 | 218 | 6.4 | 14.5 | 0.00 | 0.51 | 0.51 | 83 | 1007.9 |
| 20260506223608 | 9 | 209 | 4.8 | 16.1 | 0.00 | 0.51 | 0.51 | 83 | 1007.9 |
| 20260506222605 | 9 | 211 | 6.4 | 14.5 | 0.00 | 0.51 | 0.51 | 82 | 1007.9 |
| 20260506221606 | 9 | 223 | 8.0 | 16.1 | 0.00 | 0.51 | 0.51 | 80 | 1007.9 |
| 20260506220605 | 10 | 236 | 8.0 | 19.3 | 0.00 | 0.51 | 0.51 | 79 | 1007.8 |
| 20260506215605 | 10 | 223 | 9.7 | 20.9 | 0.00 | 0.53 | 0.51 | 76 | 1007.8 |
| 20260506214605 | 10 | 228 | 6.4 | 16.1 | 0.00 | 0.61 | 0.51 | 75 | 1007.8 |
| 20260506213604 | 10 | 197 | 6.4 | 16.1 | 0.00 | 0.64 | 0.51 | 74 | 1007.7 |
| 20260506211605 | 11 | 203 | 9.7 | 19.3 | 0.00 | 0.64 | 0.51 | 71 | 1007.7 |
| 20260506210605 | 11 | 208 | 9.7 | 19.3 | 0.00 | 0.64 | 0.51 | 71 | 1007.6 |
| 20260506205605 | 11 | 214 | 9.7 | 14.5 | 0.00 | 0.64 | 0.51 | 71 | 1007.5 |
| 20260506204606 | 11 | 205 | 9.7 | 12.9 | 0.00 | 0.64 | 0.51 | 71 | 1007.4 |
| 20260506202605 | 11 | 198 | 9.7 | 16.1 | 0.00 | 0.64 | 0.51 | 70 | 1007.4 |
| 20260506201605 | 11 | 199 | 11.3 | 16.1 | 0.00 | 0.64 | 0.51 | 69 | 1007.5 |
| 20260506200605 | 11 | 190 | 8.0 | 14.5 | 0.00 | 0.64 | 0.51 | 70 | 1007.6 |
| 20260506195604 | 11 | 207 | 3.2 | 12.9 | 0.00 | 0.64 | 0.51 | 69 | 1007.6 |
| 20260506194605 | 11 | 211 | 9.7 | 14.5 | 0.00 | 0.64 | 0.51 | 69 | 1007.4 |
| 20260506193605 | 11 | 185 | 9.7 | 14.5 | 0.00 | 0.64 | 0.51 | 68 | 1007.6 |
| 20260506192605 | 12 | 196 | 3.2 | 12.9 | 0.00 | 0.64 | 0.51 | 68 | 1007.6 |
| 20260506191605 | 12 | 190 | 8.0 | 16.1 | 0.00 | 0.64 | 0.51 | 67 | 1007.7 |
| 20260506190605 | 12 | 187 | 9.7 | 16.1 | 0.00 | 0.64 | 0.51 | 68 | 1007.6 |
| 20260506185605 | 11 | 243 | 8.0 | 12.9 | 0.00 | 0.64 | 0.51 | 70 | 1007.6 |
| 20260506184605 | 11 | 192 | 4.8 | 11.3 | 0.00 | 0.64 | 0.51 | 75 | 1007.6 |
| 20260506183605 | 11 | 22 | 3.2 | 11.3 | 0.00 | 0.64 | 0.51 | 68 | 1007.6 |
| 20260506182604 | 12 | 164 | 6.4 | 12.9 | 0.00 | 0.64 | 0.51 | 76 | 1007.8 |
| 20260506181605 | 11 | 202 | 3.2 | 12.9 | 0.00 | 0.64 | 0.51 | 77 | 1007.8 |
| 20260506180605 | 10 | 225 | 1.6 | 11.3 | 0.00 | 0.64 | 0.51 | 74 | 1007.8 |
| 20260506175605 | 10 | 48 | 4.8 | 8.0 | 0.00 | 0.64 | 0.51 | 77 | 1007.8 |
| 20260506174606 | 10 | 286 | 1.6 | 9.7 | 0.00 | 0.64 | 0.51 | 77 | 1007.9 |
| 20260506173605 | 10 | 225 | 6.4 | 9.7 | 0.00 | 0.64 | 0.51 | 81 | 1007.9 |
| 20260506172604 | 9 | 250 | 1.6 | 4.8 | 0.00 | 0.64 | 0.51 | 75 | 1008.1 |
| 20260506171604 | 9 | 332 | 1.6 | 4.8 | 0.00 | 0.64 | 0.51 | 80 | 1008.1 |
| 20260506170605 | 8 | 241 | 0.0 | 3.2 | 0.00 | 0.64 | 0.51 | 79 | 1008.2 |
| 20260506165605 | 8 | 240 | 1.6 | 4.8 | 0.00 | 0.64 | 0.51 | 80 | 1008.1 |
| 20260506164605 | 8 | 240 | 3.2 | 4.8 | 0.00 | 0.64 | 0.51 | 80 | 1008.1 |
| 20260506163605 | 8 | 133 | 1.6 | 4.8 | 0.00 | 0.64 | 0.51 | 81 | 1008.1 |
| 20260506162604 | 8 | 103 | 1.6 | 8.0 | 0.00 | 0.64 | 0.51 | 82 | 1007.8 |
| 20260506155605 | 8 | 96 | 1.6 | 8.0 | 0.00 | 0.64 | 0.51 | 84 | 1007.9 |
| 20260506154605 | 7 | 110 | 3.2 | 9.7 | 0.00 | 0.64 | 0.51 | 85 | 1007.9 |
| 20260506152605 | 8 | 86 | 8.0 | 12.9 | 0.00 | 0.64 | 0.51 | 83 | 1007.9 |
| 20260506150605 | 8 | 79 | 4.8 | 8.0 | 0.00 | 0.64 | 0.51 | 85 | 1008.0 |
| 20260506145605 | 7 | 42 | 1.6 | 3.2 | 0.00 | 0.64 | 0.51 | 84 | 1008.3 |
| 20260506144604 | 7 | 65 | 3.2 | 4.8 | 0.00 | 0.64 | 0.51 | 89 | 1008.1 |
| 20260506143604 | 7 | 21 | 1.6 | 4.8 | 0.00 | 0.64 | 0.51 | 87 | 1008.3 |
| 20260506142604 | 7 | 358 | 3.2 | 4.8 | 0.00 | 0.64 | 0.51 | 88 | 1008.3 |
| 20260506141605 | 6 | 359 | 0.0 | 4.8 | 0.00 | 0.64 | 0.51 | 90 | 1008.2 |
| 20260506140604 | 6 | 62 | 1.6 | 4.8 | 0.00 | 0.64 | 0.51 | 89 | 1008.4 |
| 20260506134605 | 6 | 35 | 4.8 | 8.0 | 0.03 | 0.64 | 0.51 | 92 | 1007.8 |
| 20260506133605 | 6 | 73 | 3.2 | 4.8 | 0.03 | 0.64 | 0.51 | 91 | 1007.8 |
| 20260506132604 | 6 | 73 | 3.2 | 4.8 | 0.03 | 0.64 | 0.51 | 92 | 1008.1 |
| 20260506131604 | 6 | 74 | 1.6 | 3.2 | 0.03 | 0.64 | 0.51 | 91 | 1008.1 |
| 20260506130605 | 6 | 74 | 3.2 | 4.8 | 0.03 | 0.64 | 0.51 | 91 | 1008.1 |
| 20260506125605 | 6 | 42 | 3.2 | 4.8 | 0.03 | 0.64 | 0.51 | 94 | 1007.8 |
| 20260506124605 | 6 | 325 | 1.6 | 4.8 | 0.00 | 0.61 | 0.48 | 94 | 1007.8 |
| 20260506123605 | 6 | 320 | 0.0 | 3.2 | 0.00 | 0.61 | 0.48 | 95 | 1007.8 |
| 20260506122604 | 6 | 320 | 3.2 | 4.8 | 0.00 | 0.61 | 0.48 | 95 | 1008.0 |
| 20260506121604 | 6 | 319 | 1.6 | 3.2 | 0.00 | 0.61 | 0.48 | 94 | 1008.0 |
| 20260506120605 | 6 | 319 | 0.0 | 1.6 | 0.00 | 0.61 | 0.48 | 95 | 1008.1 |
| 20260506114605 | 6 | 319 | 0.0 | 1.6 | 0.00 | 0.61 | 0.48 | 95 | 1007.9 |
| 20260506113605 | 6 | 319 | 0.0 | 3.2 | 0.00 | 0.61 | 0.48 | 96 | 1008.0 |
| 20260506110605 | 5 | 319 | 1.6 | 4.8 | 0.03 | 0.61 | 0.48 | 96 | 1007.8 |
| 20260506105604 | 5 | 317 | 3.2 | 4.8 | 0.03 | 0.61 | 0.48 | 96 | 1007.6 |
| 20260506104604 | 5 | 242 | 0.0 | 1.6 | 0.05 | 0.61 | 0.48 | 95 | 1007.5 |
| 20260506103604 | 5 | 242 | 3.2 | 4.8 | 0.05 | 0.61 | 0.48 | 95 | 1007.3 |
| 20260506101605 | 6 | 122 | 3.2 | 8.0 | 0.10 | 0.61 | 0.48 | 96 | 1007.3 |
| 20260506100604 | 6 | 135 | 3.2 | 8.0 | 0.13 | 0.61 | 0.46 | 96 | 1007.6 |
| 20260506095604 | 6 | 191 | 0.0 | 0.0 | 0.15 | 0.61 | 0.46 | 96 | 1007.7 |
| 20260506094605 | 6 | 191 | 0.0 | 0.0 | 0.15 | 0.58 | 0.43 | 96 | 1007.9 |
| 20260506093605 | 6 | 191 | 0.0 | 0.0 | 0.15 | 0.56 | 0.43 | 96 | 1008.0 |
| 20260506092604 | 6 | 191 | 0.0 | 0.0 | 0.15 | 0.53 | 0.41 | 96 | 1007.9 |
| 20260506091605 | 6 | 191 | 0.0 | 0.0 | 0.15 | 0.51 | 0.38 | 96 | 1008.2 |
| 20260506085604 | 6 | 191 | 0.0 | 0.0 | 0.18 | 0.46 | 0.33 | 96 | 1007.8 |
| 20260506084604 | 6 | 191 | 0.0 | 1.6 | 0.20 | 0.43 | 0.30 | 96 | 1007.8 |
| 20260506083605 | 6 | 191 | 1.6 | 3.2 | 0.20 | 0.43 | 0.28 | 96 | 1007.7 |
| 20260506082604 | 6 | 191 | 3.2 | 4.8 | 0.23 | 0.41 | 0.25 | 96 | 1007.7 |
| 20260506081605 | 6 | 226 | 3.2 | 4.8 | 0.23 | 0.38 | 0.23 | 95 | 1007.9 |
| 20260506080604 | 6 | 246 | 0.0 | 3.2 | 0.18 | 0.33 | 0.18 | 95 | 1008.1 |
| 20260506072604 | 7 | 246 | 0.0 | 0.0 | 0.05 | 0.18 | 0.05 | 94 | 1007.8 |
| 20260506071604 | 7 | 246 | 0.0 | 4.8 | 0.03 | 0.15 | 0.03 | 94 | 1007.9 |